Volver al catálogo

YAOGAN-36 03B

ActivoMilitarVLEO
NORAD 54374·PAYLOAD·🇨🇳 China

Lanzado Nov 27, 2022 desde Xichang Satellite Launch Center

Loading…

Próximos Pases (próximas 24 horas)

TLE

ActualizadoSource: Space-Track

Época: Sep 14, 2026, 22:23 UTC

1 54374U 22160C   26257.93279778  .00006344  00000-0  27294-3 0  9992
2 54374  34.9924 162.7255 0009509 251.0995 108.8688 15.21915941211403

Sigue YAOGAN-36 03B en tiempo real con AllMySat

Download on the App Store